Demopolis Municipal Airport, AL

12:27 PM CDT on August 19, 2019 (GMT -0500)
Demopolis Municipal Airport

Weather History for KDYA - July, 2019

Change the Weather History Date:

Thursday, July 18, 2019

  Actual Average (KNMM) Record (KNMM)
Temperature  
Mean Temperature 83 °F -  
Max Temperature 93 °F 89 °F 100 °F (2006)
Min Temperature 73 °F 69 °F 64 °F (2001)
Cooling Degree Days 18    
Growing Degree Days 33 (Base 50)    
Moisture  
Dew Point 74 °F    
Average Humidity 73    
Maximum Humidity 100    
Minimum Humidity 47    
Precipitation  
Precipitation 0.00 in - - ()
Sea Level Pressure  
Sea Level Pressure 30.05 in    
Wind  
Wind Speed 2 mph (SW)    
Max Wind Speed 7 mph    
Max Gust Speed -    
Visibility 9 miles    
Events      
Averages and records for this station are not official NWS values.
T = Trace of Precipitation, MM = Missing Value Source: NWS Daily Summary

Daily Weather History Graph

Daily Weather History Graph

Search for Another Location

Airport or City:

Astronomy

Jul. 18, 2019 Rise Set
Actual Time 5:57 AM CDT 7:58 PM CDT
Civil Twilight 5:29 AM CDT 8:26 PM CDT
Nautical Twilight 4:55 AM CDT 8:59 PM CDT
Astronomical Twilight 4:19 AM CDT 9:35 PM CDT
Moon 9:27 PM CDT (7/18) 7:23 AM CDT (7/18)
Length of Visible Light 14h 57m
Length of Day
14h 01m
Full, 97% of the Moon is Illuminated
Jul 18
Full
Jul 24
Last Quarter
Jul 31
New
Aug 7
First Quarter
Aug 15
Full

Hourly Weather History & Observations

Time (CDT) Temp. Heat Index Dew Point Humidity Pressure Visibility Wind Dir Wind Speed Gust Speed Precip Events Conditions
12:15 AM 77.0 °F - 77.0 °F 100% 30.08 in 10.0 mi Calm Calm - N/A   Clear
12:35 AM 76.1 °F - 76.1 °F 100% 30.07 in 7.0 mi SE 3.5 mph - N/A   Clear
12:55 AM 76.3 °F - 76.3 °F 100% 30.07 in 7.0 mi Calm Calm - N/A   Clear
1:15 AM 76.1 °F - 76.1 °F 100% 30.07 in 7.0 mi Calm Calm - N/A   Clear
1:35 AM - - - N/A% 30.07 in 10.0 mi Calm Calm - N/A   Clear
1:55 AM - - - N/A% 30.06 in 10.0 mi Calm Calm - N/A   Clear
2:15 AM - - - N/A% 30.05 in 7.0 mi Calm Calm - N/A   Clear
2:35 AM - - - N/A% 30.05 in 7.0 mi Calm Calm - N/A   Clear
2:55 AM - - - N/A% 30.05 in 10.0 mi Calm Calm - N/A   Clear
3:15 AM - - - N/A% 30.06 in 7.0 mi Calm Calm - N/A   Clear
3:35 AM - - - N/A% 30.06 in 5.0 mi SE 3.5 mph - N/A   Haze
3:55 AM - - - N/A% 30.06 in 10.0 mi SSE 3.5 mph - N/A   Clear
4:15 AM - - - N/A% 30.06 in 10.0 mi Calm Calm - N/A   Clear
4:35 AM 74.8 °F - 74.8 °F 100% 30.06 in 10.0 mi Calm Calm - N/A   Clear
4:55 AM 74.5 °F - 74.5 °F 100% 30.06 in 10.0 mi Calm Calm - N/A   Clear
5:15 AM 74.5 °F - 74.5 °F 100% 30.06 in 10.0 mi Calm Calm - N/A   Clear
5:35 AM 73.8 °F - 73.8 °F 100% 30.07 in 7.0 mi Calm Calm - N/A   Clear
5:55 AM 73.8 °F - 73.8 °F 100% 30.07 in 10.0 mi Calm Calm - N/A   Clear
6:15 AM 73.8 °F - 73.8 °F 100% 30.07 in 10.0 mi Calm Calm - N/A   Clear
6:35 AM 73.9 °F - 73.9 °F 100% 30.07 in 7.0 mi Calm Calm - N/A   Clear
6:55 AM 75.4 °F - 74.7 °F 98% 30.08 in 5.0 mi Calm Calm - N/A   Clear
7:15 AM 76.6 °F - 74.3 °F 92% 30.08 in 7.0 mi Calm Calm - N/A   Clear
7:35 AM 78.3 °F - 73.6 °F 85% 30.08 in 7.0 mi Calm Calm - N/A   Clear
7:55 AM 79.3 °F - 73.9 °F 83% 30.08 in 7.0 mi SW 4.6 mph - N/A   Clear
8:15 AM 79.2 °F - 73.9 °F 84% 30.08 in 7.0 mi SSW 3.5 mph - N/A   Clear
8:35 AM 79.9 °F - 74.3 °F 83% 30.08 in 10.0 mi SSW 3.5 mph - N/A   Clear
8:55 AM 81.3 °F 87.4 °F 74.8 °F 81% 30.08 in 10.0 mi Calm Calm - N/A   Clear
9:15 AM 83.3 °F 90.8 °F 75.2 °F 76% 30.08 in 10.0 mi West 4.6 mph - N/A   Clear
9:35 AM 84.6 °F 92.8 °F 75.0 °F 73% 30.08 in 10.0 mi WSW 4.6 mph - N/A   Clear
9:55 AM 85.8 °F 94.6 °F 75.2 °F 70% 30.08 in 10.0 mi WSW 4.6 mph - N/A   Clear
10:15 AM 86.7 °F 95.0 °F 74.3 °F 66% 30.08 in 10.0 mi West 5.8 mph - N/A   Clear
10:35 AM 87.8 °F 96.1 °F 73.9 °F 63% 30.08 in 10.0 mi West 4.6 mph - N/A   Clear
10:55 AM 88.5 °F 97.3 °F 74.1 °F 62% 30.08 in 10.0 mi West 4.6 mph - N/A   Clear
11:15 AM 89.4 °F 98.9 °F 74.5 °F 61% 30.08 in 10.0 mi WNW 5.8 mph - N/A   Clear
11:35 AM 89.6 °F 96.6 °F 72.0 °F 56% 30.08 in 10.0 mi Calm Calm - N/A   Scattered Clouds
11:55 AM 88.3 °F 95.9 °F 73.0 °F 60% 30.08 in 10.0 mi WNW 3.5 mph - N/A   Scattered Clouds
12:15 PM 89.2 °F 96.9 °F 72.9 °F 58% 30.08 in 10.0 mi WSW 3.5 mph - N/A   Scattered Clouds
12:35 PM 91.2 °F 99.1 °F 72.7 °F 54% 30.08 in 10.0 mi WNW 4.6 mph - N/A   Mostly Cloudy
12:55 PM 91.9 °F 100.7 °F 73.2 °F 54% 30.07 in 10.0 mi SW 6.9 mph - N/A   Mostly Cloudy
1:15 PM 92.1 °F 99.9 °F 72.0 °F 52% 30.07 in 10.0 mi WSW 6.9 mph - N/A   Scattered Clouds
1:35 PM 91.6 °F 98.8 °F 71.8 °F 52% 30.06 in 10.0 mi West 4.6 mph - N/A   Clear
1:55 PM 91.9 °F 98.4 °F 70.9 °F 50% 30.05 in 10.0 mi WNW 3.5 mph - N/A   Clear
2:15 PM 92.5 °F 99.0 °F 71.1 °F 49% 30.05 in 10.0 mi Calm Calm - N/A   Scattered Clouds
2:55 PM 92.8 °F 98.6 °F 70.2 °F 47% 30.04 in 10.0 mi South 3.5 mph - N/A   Scattered Clouds
3:15 PM 92.1 °F 98.3 °F 70.3 °F 49% 30.03 in 10.0 mi South 5.8 mph - N/A   Scattered Clouds
3:35 PM 92.7 °F 99.4 °F 70.9 °F 49% 30.02 in 10.0 mi West 6.9 mph - N/A   Mostly Cloudy
3:55 PM 92.8 °F 98.6 °F 69.8 °F 47% 30.01 in 10.0 mi West 4.6 mph - N/A   Scattered Clouds
4:15 PM 93.2 °F 99.9 °F 70.7 °F 48% 30.01 in 10.0 mi WSW 4.6 mph - N/A   Clear
4:35 PM 92.7 °F 99.4 °F 70.9 °F 49% 30.01 in 10.0 mi WSW 4.6 mph - N/A   Clear
4:55 PM 92.3 °F 98.6 °F 70.5 °F 49% 30.01 in 10.0 mi SSW 4.6 mph - N/A   Scattered Clouds
5:15 PM 92.5 °F 97.9 °F 69.8 °F 47% 30.00 in 10.0 mi SW 4.6 mph - N/A   Clear
5:35 PM 93.0 °F 99.5 °F 70.9 °F 48% 30.00 in 10.0 mi SW 4.6 mph - N/A   Clear
5:55 PM 92.7 °F 98.8 °F 70.3 °F 48% 29.99 in 10.0 mi South 4.6 mph - N/A   Clear
6:15 PM 92.5 °F 98.4 °F 70.0 °F 48% 29.99 in 10.0 mi South 3.5 mph - N/A   Clear
6:35 PM 91.8 °F 97.5 °F 70.2 °F 49% 29.99 in 10.0 mi South 3.5 mph - N/A   Clear
6:55 PM 90.7 °F 97.4 °F 71.4 °F 53% 29.99 in 10.0 mi Calm Calm - N/A   Clear
7:15 PM 90.0 °F 97.4 °F 72.5 °F 56% 30.00 in 10.0 mi Calm Calm - N/A   Clear
7:35 PM 87.4 °F 98.7 °F 76.5 °F 70% 30.00 in 10.0 mi Calm Calm - N/A   Clear
7:55 PM 85.6 °F 97.3 °F 77.5 °F 77% 30.01 in 10.0 mi Calm Calm - N/A   Clear
8:15 PM 83.1 °F 91.9 °F 76.6 °F 81% 30.01 in 10.0 mi Calm Calm - N/A   Clear
8:35 PM 82.0 °F 89.9 °F 76.8 °F 84% 30.01 in 10.0 mi Calm Calm - N/A   Clear
8:55 PM 81.5 °F 88.5 °F 76.3 °F 84% 30.02 in 10.0 mi Calm Calm - N/A   Clear
9:15 PM 80.6 °F 86.9 °F 76.6 °F 88% 30.02 in 10.0 mi Calm Calm - N/A   Clear
9:35 PM 80.1 °F 85.8 °F 76.8 °F 90% 30.02 in 10.0 mi Calm Calm - N/A   Clear
9:55 PM 81.1 °F 88.4 °F 77.2 °F 88% 30.04 in 10.0 mi Calm Calm - N/A   Clear
10:15 PM 80.1 °F 85.7 °F 76.5 °F 89% 30.04 in 10.0 mi Calm Calm - N/A   Clear
10:35 PM 79.5 °F - 76.1 °F 89% 30.04 in 10.0 mi Calm Calm - N/A   Clear
10:55 PM 78.4 °F - 75.7 °F 91% 30.04 in 10.0 mi Calm Calm - N/A   Clear
11:15 PM 78.3 °F - 75.2 °F 90% 30.04 in 10.0 mi Calm Calm - N/A   Clear
11:35 PM 77.9 °F - 75.4 °F 92% 30.04 in 10.0 mi Calm Calm - N/A   Clear
11:55 PM 77.5 °F - 75.4 °F 93% 30.04 in 10.0 mi Calm Calm - N/A   Clear